TimeCST,TemperatureF,Dew PointF,Humidity,Sea Level PressureIn,VisibilityMPH,Wind Direction,Wind SpeedMPH,Gust SpeedMPH,PrecipitationIn,Events,Conditions,WindDirDegrees,DateUTC
12:15 AM,31.1,22.8,71,29.78,10.0,WNW,23.0,29.9,N/A,,Overcast,300,2013-01-12 06:15:00
12:35 AM,29.8,21.2,70,29.81,10.0,NW,23.0,28.8,N/A,,Overcast,310,2013-01-12 06:35:00
12:55 AM,28.2,18.5,67,29.83,10.0,NW,21.9,29.9,N/A,,Scattered Clouds,310,2013-01-12 06:55:00
1:15 AM,27.0,16.7,65,29.84,10.0,WNW,15.0,24.2,N/A,,Scattered Clouds,300,2013-01-12 07:15:00
1:35 AM,26.6,17.4,68,29.86,10.0,WNW,18.4,23.0,N/A,,Mostly Cloudy,300,2013-01-12 07:35:00
1:55 AM,26.6,17.1,67,29.87,10.0,NW,18.4,24.2,N/A,,Overcast,310,2013-01-12 07:55:00
2:15 AM,26.1,16.9,68,29.88,10.0,NW,12.7,20.7,N/A,,Overcast,320,2013-01-12 08:15:00
2:35 AM,26.2,16.7,67,29.90,10.0,NW,16.1,-,N/A,,Overcast,310,2013-01-12 08:35:00
2:55 AM,25.7,16.7,69,29.91,10.0,NW,12.7,-,N/A,,Scattered Clouds,310,2013-01-12 08:55:00
3:15 AM,25.3,15.8,67,29.92,10.0,WNW,16.1,21.9,N/A,,Clear,300,2013-01-12 09:15:00
3:35 AM,25.2,14.9,65,29.93,10.0,WNW,13.8,26.5,N/A,,Clear,300,2013-01-12 09:35:00
3:55 AM,24.6,15.4,68,29.94,10.0,WNW,11.5,-,N/A,,Clear,300,2013-01-12 09:55:00
4:15 AM,24.1,15.6,70,29.95,10.0,WNW,8.1,-,N/A,,Clear,300,2013-01-12 10:15:00
4:35 AM,23.4,16.0,73,29.96,10.0,WNW,9.2,-,N/A,,Clear,290,2013-01-12 10:35:00
4:55 AM,23.0,14.4,70,29.97,10.0,WNW,15.0,-,N/A,,Clear,300,2013-01-12 10:55:00
5:15 AM,22.8,13.5,67,29.97,10.0,WNW,13.8,17.3,N/A,,Clear,300,2013-01-12 11:15:00
5:35 AM,22.5,12.9,67,29.99,10.0,WNW,13.8,-,N/A,,Clear,290,2013-01-12 11:35:00
5:55 AM,21.9,11.7,65,29.99,10.0,NW,15.0,-,N/A,,Clear,310,2013-01-12 11:55:00
6:15 AM,21.6,11.8,66,30.00,10.0,Calm,Calm,-,N/A,,Clear,0,2013-01-12 12:15:00
6:35 AM,20.8,12.2,69,30.01,10.0,Calm,Calm,-,N/A,,Clear,0,2013-01-12 12:35:00
6:55 AM,20.1,12.7,73,30.01,10.0,Calm,Calm,-,N/A,,Clear,0,2013-01-12 12:55:00
7:15 AM,19.4,12.6,75,30.02,10.0,Calm,Calm,-,N/A,,Clear,0,2013-01-12 13:15:00
7:35 AM,19.4,13.1,76,30.02,10.0,Calm,Calm,-,N/A,,Clear,0,2013-01-12 13:35:00
7:55 AM,20.1,12.9,74,30.03,10.0,WNW,15.0,-,N/A,,Clear,290,2013-01-12 13:55:00
8:15 AM,19.9,10.8,68,30.06,10.0,WNW,11.5,-,N/A,,Clear,290,2013-01-12 14:15:00
8:35 AM,19.9,11.3,69,30.05,10.0,WNW,11.5,16.1,N/A,,Clear,290,2013-01-12 14:35:00
8:55 AM,20.8,11.3,67,30.07,10.0,WNW,11.5,18.4,N/A,,Clear,290,2013-01-12 14:55:00
9:15 AM,20.3,9.3,63,30.08,10.0,WNW,17.3,-,N/A,,Clear,300,2013-01-12 15:15:00
9:35 AM,20.3,9.1,62,30.07,10.0,NW,15.0,20.7,N/A,,Clear,310,2013-01-12 15:35:00
9:55 AM,20.3,9.7,64,30.05,10.0,WNW,17.3,20.7,N/A,,Clear,300,2013-01-12 15:55:00
10:15 AM,20.3,9.0,62,30.08,10.0,WNW,15.0,20.7,N/A,,Clear,290,2013-01-12 16:15:00
10:35 AM,21.2,8.8,59,30.10,10.0,WNW,15.0,-,N/A,,Clear,300,2013-01-12 16:35:00
10:55 AM,21.0,7.2,55,30.09,10.0,WNW,17.3,21.9,N/A,,Clear,300,2013-01-12 16:55:00
11:15 AM,21.7,7.7,55,30.09,10.0,NW,16.1,21.9,N/A,,Clear,310,2013-01-12 17:15:00
11:55 AM,20.7,6.8,55,30.07,10.0,NW,17.3,25.3,N/A,,Clear,310,2013-01-12 17:55:00
12:15 PM,23.2,7.5,51,30.08,10.0,NW,16.1,23.0,N/A,,Clear,310,2013-01-12 18:15:00
12:35 PM,24.4,7.5,49,30.05,10.0,NW,19.6,24.2,N/A,,Clear,310,2013-01-12 18:35:00
12:55 PM,25.2,8.4,49,30.03,10.0,NW,15.0,21.9,N/A,,Clear,320,2013-01-12 18:55:00
1:15 PM,24.6,7.9,49,30.02,10.0,NNW,19.6,25.3,N/A,,Clear,330,2013-01-12 19:15:00
1:35 PM,23.9,7.9,51,30.03,10.0,NW,13.8,23.0,N/A,,Mostly Cloudy,320,2013-01-12 19:35:00
1:55 PM,24.4,7.9,49,30.03,10.0,NNW,18.4,25.3,N/A,,Mostly Cloudy,330,2013-01-12 19:55:00
2:15 PM,24.4,7.9,49,30.06,10.0,NW,15.0,-,N/A,,Scattered Clouds,320,2013-01-12 20:15:00
2:35 PM,24.1,8.1,51,30.04,10.0,NW,16.1,-,N/A,,Scattered Clouds,320,2013-01-12 20:35:00
2:55 PM,24.4,8.2,50,30.04,10.0,NNW,12.7,17.3,N/A,,Mostly Cloudy,340,2013-01-12 20:55:00
3:15 PM,23.4,7.7,51,30.07,10.0,NW,13.8,17.3,N/A,,Mostly Cloudy,320,2013-01-12 21:15:00
3:35 PM,23.4,7.5,51,30.06,10.0,NNW,13.8,19.6,N/A,,Mostly Cloudy,330,2013-01-12 21:35:00
3:55 PM,22.6,7.7,53,30.05,10.0,NNW,16.1,20.7,N/A,,Overcast,340,2013-01-12 21:55:00
4:15 PM,22.1,7.9,54,30.06,10.0,NNW,12.7,-,N/A,,Overcast,340,2013-01-12 22:15:00
4:35 PM,21.9,8.2,56,30.07,10.0,NNW,13.8,-,N/A,,Overcast,340,2013-01-12 22:35:00
4:55 PM,21.6,8.4,57,30.08,10.0,NNW,15.0,-,N/A,,Mostly Cloudy,340,2013-01-12 22:55:00
5:15 PM,21.2,8.2,57,30.07,10.0,NNW,13.8,-,N/A,,Overcast,340,2013-01-12 23:15:00
5:35 PM,20.8,8.1,58,30.09,10.0,NNW,10.4,-,N/A,,Mostly Cloudy,340,2013-01-12 23:35:00
5:55 PM,20.7,7.7,57,30.11,10.0,NNW,9.2,-,N/A,,Overcast,330,2013-01-12 23:55:00
6:15 PM,20.3,7.5,58,30.13,10.0,NW,9.2,12.7,N/A,,Mostly Cloudy,320,2013-01-13 00:15:00
6:35 PM,19.9,7.7,59,30.12,10.0,NNW,9.2,-,N/A,,Mostly Cloudy,340,2013-01-13 00:35:00
7:15 PM,19.2,7.7,61,30.11,10.0,North,10.4,-,N/A,,Mostly Cloudy,350,2013-01-13 01:15:00
7:35 PM,18.9,7.5,61,30.10,10.0,NNW,10.4,-,N/A,,Scattered Clouds,340,2013-01-13 01:35:00
7:55 PM,18.5,7.7,63,30.11,10.0,NNW,11.5,-,N/A,,Scattered Clouds,330,2013-01-13 01:55:00
8:15 PM,18.0,7.5,64,30.09,10.0,NNW,13.8,-,N/A,,Mostly Cloudy,340,2013-01-13 02:15:00
8:35 PM,17.6,7.5,65,30.11,10.0,NW,8.1,17.3,N/A,,Scattered Clouds,320,2013-01-13 02:35:00
8:55 PM,17.1,7.2,65,30.12,10.0,NNW,8.1,-,N/A,,Scattered Clouds,330,2013-01-13 02:55:00
9:15 PM,16.7,6.8,65,30.10,10.0,NNW,11.5,-,N/A,,Scattered Clouds,330,2013-01-13 03:15:00
9:35 PM,16.3,6.1,64,30.10,10.0,NNW,10.4,-,N/A,,Scattered Clouds,340,2013-01-13 03:35:00
9:55 PM,15.4,6.8,69,30.12,10.0,NW,3.5,-,N/A,,Clear,320,2013-01-13 03:55:00
10:15 PM,15.8,7.2,69,30.11,10.0,NNW,10.4,-,N/A,,Scattered Clouds,330,2013-01-13 04:15:00
10:35 PM,15.6,6.8,68,30.11,10.0,Calm,Calm,-,N/A,,Clear,0,2013-01-13 04:35:00
10:55 PM,14.7,6.8,71,30.11,10.0,Calm,Calm,-,N/A,,Clear,0,2013-01-13 04:55:00
11:15 PM,14.4,7.2,73,30.09,10.0,NW,9.2,-,N/A,,Scattered Clouds,320,2013-01-13 05:15:00
11:35 PM,14.5,7.3,73,30.11,10.0,NNW,11.5,16.1,N/A,,Clear,330,2013-01-13 05:35:00
11:55 PM,14.2,6.3,71,30.11,10.0,NNW,12.7,17.3,N/A,,Clear,330,2013-01-13 05:55:00